COSMOS 2194

Satellite information

Favourite Embed

Satellite Type and Status

PAYLOADIN ORBIT

Key statistics

Satellite COSMOS 2194 at a glance.

Uptime

12151

Days in orbit

Revolutions

≈ 12.5

Per day

Orbit

LEO

Low Earth Orbit

Inclination

74.0

Latest

Satellite identification and parameters

Extended collection of information and parameters for COSMOS 2194.

Object identification

Identified? True

Debris? False

Object name: COSMOS 2194

International designator: 1992-030H

Object number (NORAD): 21983

Object ID (CCSDS): 21983

Country: COMMONWEALTH OF INDEPENDENT STATES (CIS)

Current information (Y/N): Y

RCS size: MEDIUM

Orbital parameters

Period: 115.341 minutes

Inclination: 74.0072 deg

SMA: 7849.037 km

Apoapsis: 1484.464 km

Periapsis: 1457.341 km

RAAN: 348.2101 deg

Eccentricy: 0.00172777

Argument of periapsis: 334.5243 deg

Mean anomaly: 39.8529 deg

Mean motion: 12.48470191 rev/day

Mean motion (dot): -0.00000003 rev/day2

B* drag term: 0.000089359182 1/REarth

Two-line elements (TLE)

Creation date: Sept. 8, 2025, 6:18 p.m.

Reference frame: TEME

Reference center: EARTH

Epoch: Sept. 8, 2025, 1:10 p.m. UTC

TLE line 0: 0 COSMOS 2194

TLE line 1: 1 21983U 92030H 25251.54881367 -.00000003 00000-0 89359-4 0 9996

TLE line 2: 2 21983 74.0072 348.2101 0017278 334.5243 39.8529 12.48470191516165

Live tracking on map

Real-time ground track for satellite COSMOS 2194.

In-orbit conjunctions

A list of the most updated potential collisions computed for object COSMOS 2194.

Target Orbit TCA Probability of collision Miss distance Type
DELTA 1 DEB SSO 2025-08-11 06:52:53 0.0001018258 391.0 (m) DEBRIS
DELTA 1 DEB SSO 2025-08-09 07:11:42 0.0001467077 147.0 (m) DEBRIS

Associated space launch

Military communications satellites

COSMOS 2194 was lifted into orbit during the mission ‘Kosmos-3M | Strela-1M 361-368’, on board a Kosmos-3M space rocket.

The launch took place on June 3, 1992, 12:50 a.m. from 133/3 (133L).

For more information about the launch, click the button.

Launch to space Kosmos-3M | Strela-1M 361-368
Kosmos-3M | Strela-1M 361-368

Agency: N/A

Status: Launch Successful

Launch date: June 3, 1992, 12:50 a.m. UTC

Rocket: Kosmos-3M

Launch pad: 133/3 (133L)

Location: Plesetsk Cosmodrome, Russian Federation

...

Latest news about this satellite

There are no fresh news available about this satellite. Check back as we update our databases every day.


Newsletter sign-up

Weekly statistics, charts and insights to help you stay on top of the space industry.